Tracking 29892 objects as of 21-Nov-2024
HD Live streaming from Space Station
objects crossing your sky now

ARIANE 2 DEB

Track ARIANE 2 DEB now!


NORAD ID: 28567
Int'l Code: 1989-006AJ
Perigee: 528.3 km
Apogee: 34,248.0 km
Inclination: 7.5 °
Period: 607.4 minutes
Semi major axis: 23759 km
RCS: 0.2829 m2 (medium)
Launch date: January 27, 1989
Source: France (FR)
Launch site: FRENCH GUIANA (FRGUI)

Note: This is SATELLITE DEBRIS
Your satellite tracking list
Your tracking list is empty




NASA's NSSDC Master Catalog

Two Line Element Set (TLE):
1 28567U 89006AJ  24318.27197204  .00001311  00000-0  10300-1 0  9992
2 28567   7.5171 205.2411 7096137 194.5132 123.0678  2.37059176185780
Source of the keplerian elements: AFSPC